KG0HG Weather Reports


time (UTC)temp
F
wind
direction
speed
knots
gust
knots
rain 1hr
in
rain 24hr
in
rain mn
in
humidity
%
barometer
mb
20260504201215 81 195 3.5 6.1 0.00 0.00 0.00 43 1002.4
20260504200713 80 123 0.9 5.2 0.00 0.00 0.00 44 1002.4
20260504200209 81 171 2.6 8.7 0.00 0.00 0.00 43 1002.6
20260504195705 81 158 4.3 7.0 0.00 0.00 0.00 43 1002.4
20260504195201 81 120 0.9 5.2 0.00 0.00 0.00 43 1002.3
20260504194659 81 212 3.5 8.7 0.00 0.00 0.00 43 1002.4
20260504194154 81 172 1.7 6.1 0.00 0.00 0.00 45 1002.4
20260504193651 81 137 2.6 5.2 0.00 0.00 0.00 44 1002.3
20260504193149 81 243 2.6 9.6 0.00 0.00 0.00 43 1002.4
20260504192647 80 147 3.5 4.3 0.00 0.00 0.00 44 1002.2
20260504192145 79 147 2.6 7.0 0.00 0.00 0.00 44 1002.6
20260504191643 79 263 3.5 9.6 0.00 0.00 0.00 43 1002.7
20260504191138 79 182 1.7 8.7 0.00 0.00 0.00 43 1002.7
20260504190635 78 151 2.6 7.8 0.00 0.00 0.00 44 1002.7
20260504190132 79 305 7.0 9.6 0.00 0.00 0.00 43 1002.6
20260504185628 79 183 3.5 7.0 0.00 0.00 0.00 43 1002.7
20260504185125 78 156 1.7 7.0 0.00 0.00 0.00 43 1002.8
20260504184621 78 146 4.3 7.8 0.00 0.00 0.00 44 1002.7
20260504184116 77 123 2.6 4.3 0.00 0.00 0.00 43 1002.6
20260504183613 78 189 3.5 6.1 0.00 0.00 0.00 44 1002.9
20260504183111 78 176 2.6 8.7 0.00 0.00 0.00 44 1002.7
20260504182608 78 173 6.1 11.3 0.00 0.00 0.00 45 1002.9
20260504182105 77 179 4.3 6.1 0.00 0.00 0.00 46 1002.7
20260504181603 77 194 2.6 8.7 0.00 0.00 0.00 44 1002.9
20260504181100 77 164 5.2 7.0 0.00 0.00 0.00 43 1003.0
20260504180559 77 153 1.7 7.8 0.00 0.00 0.00 45 1003.0
20260504180058 77 133 1.7 5.2 0.00 0.00 0.00 45 1002.8
20260504175555 77 180 1.7 8.7 0.00 0.00 0.00 45 1002.9
20260504175051 77 178 2.6 7.0 0.00 0.00 0.00 45 1003.0
20260504174549 76 230 2.6 4.3 0.00 0.00 0.00 45 1003.1
20260504174046 76 148 4.3 12.2 0.00 0.00 0.00 46 1003.2
20260504173542 76 156 2.6 5.2 0.00 0.00 0.00 46 1003.3
20260504173040 75 168 1.7 5.2 0.00 0.00 0.00 45 1003.5
20260504172536 75 283 4.3 7.0 0.00 0.00 0.00 46 1003.3
20260504172033 75 163 2.6 5.2 0.00 0.00 0.00 47 1003.3
20260504171530 76 209 2.6 4.3 0.00 0.00 0.00 45 1003.1
20260504171027 76 211 2.6 4.3 0.00 0.00 0.00 48 1003.2
20260504170522 76 121 2.6 5.2 0.00 0.00 0.00 47 1003.3
20260504160443 72 185 4.3 5.2 0.00 0.00 0.00 52 1003.6
20260504150906 70 112 3.5 9.6 0.00 0.00 0.00 55 1004.1
20260504150403 70 158 2.6 4.3 0.00 0.00 0.00 55 1004.1
20260504141333 66 145 2.6 5.2 0.00 0.00 0.00 60 1004.5
20260504140830 66 140 1.7 1.7 0.00 0.00 0.00 61 1004.2
20260504140325 65 142 0.9 1.7 0.00 0.00 0.00 61 1004.1
20260504130754 63 133 0.9 1.7 0.00 0.00 0.00 67 1004.3
20260504130250 62 128 0.9 1.7 0.00 0.00 0.00 67 1004.3
20260504120214 59 100 0.0 0.0 0.00 0.00 0.00 75 1004.4
20260504110641 53 101 0.0 0.0 0.00 0.00 0.00 94 1004.6
20260504110137 53 101 0.0 0.0 0.00 0.00 0.00 93 1004.3
20260504100557 53 89 0.0 0.0 0.00 0.00 0.00 91 1005.1
20260504081951 55 89 0.0 0.0 0.00 0.00 0.00 86 1005.8
20260504081448 56 89 0.0 0.0 0.00 0.00 0.00 84 1005.7
20260504080944 57 89 0.0 0.0 0.00 0.00 0.00 82 1005.9
20260504080441 57 89 0.0 0.0 0.00 0.00 0.00 81 1005.8
20260504070409 60 89 0.0 0.0 0.00 0.00 0.00 73 1006.6
20260504050253 60 107 0.0 0.0 0.00 0.00 0.00 83 1008.2
20260504045751 60 107 0.0 0.0 0.00 0.00 0.00 82 1008.2
20260504045245 60 108 0.9 1.7 0.00 0.00 0.00 82 1008.0
20260504044743 60 93 1.7 1.7 0.00 0.00 0.00 83 1007.9
20260504044240 60 97 0.0 1.7 0.00 0.00 0.00 84 1008.1
20260504043737 60 106 0.0 0.0 0.00 0.00 0.00 84 1008.0
20260504043234 60 120 0.0 0.0 0.00 0.00 0.00 84 1008.2
20260504042732 60 120 0.0 0.0 0.00 0.00 0.00 83 1008.1
20260504042228 61 120 0.0 0.0 0.00 0.00 0.00 80 1008.0
20260504041724 61 120 0.0 0.0 0.00 0.00 0.00 80 1008.0
20260504041220 61 120 0.0 0.0 0.00 0.00 0.00 79 1007.8
20260504040717 61 120 0.0 0.0 0.00 0.00 0.00 77 1008.0
20260504040214 60 120 0.0 0.0 0.00 0.00 0.00 81 1007.8
20260504035710 61 120 0.0 0.0 0.00 0.00 0.00 81 1007.8
20260504035208 61 120 0.0 0.0 0.00 0.00 0.00 80 1008.0
20260504034705 61 120 0.0 0.0 0.00 0.00 0.00 81 1008.0
20260504034202 61 126 0.0 0.0 0.00 0.00 0.00 81 1008.0
20260504033700 61 126 0.0 0.0 0.00 0.00 0.00 81 1007.9
20260504033157 61 126 0.0 0.0 0.00 0.00 0.00 80 1008.1
20260504032653 61 127 0.9 0.9 0.00 0.00 0.00 79 1008.1
20260504032151 61 134 0.0 0.0 0.00 0.00 0.00 78 1007.9
20260504031648 62 136 1.7 2.6 0.00 0.00 0.00 76 1008.0
20260504031144 62 111 0.0 0.0 0.00 0.00 0.00 75 1008.0
20260504030640 63 111 0.0 0.9 0.00 0.00 0.00 74 1008.2
20260504030137 63 110 0.0 0.9 0.00 0.00 0.00 72 1008.1
20260504025634 63 110 0.0 0.0 0.00 0.00 0.00 71 1008.2
20260504025131 64 110 0.0 0.0 0.00 0.00 0.00 70 1008.4
20260504024628 64 110 0.0 0.0 0.00 0.00 0.00 68 1008.3
20260504024125 64 110 0.0 0.0 0.00 0.00 0.00 68 1008.0
20260504023621 65 110 0.0 0.0 0.00 0.00 0.00 67 1007.9
20260504023117 65 110 0.0 1.7 0.00 0.00 0.00 66 1008.1
20260504022614 66 110 0.0 0.0 0.00 0.00 0.00 64 1008.0
20260504022110 66 110 0.0 0.0 0.00 0.00 0.00 64 1008.0
20260504021608 66 110 0.0 0.0 0.00 0.00 0.00 64 1008.1
20260504021104 67 110 0.0 0.9 0.00 0.00 0.00 62 1008.1
20260504020602 68 110 0.0 0.0 0.00 0.00 0.00 58 1008.2
20260504020057 68 110 0.0 0.9 0.00 0.00 0.00 57 1008.3
20260504015554 69 110 0.0 0.9 0.00 0.00 0.00 58 1008.4
20260504015050 69 58 0.0 0.0 0.00 0.00 0.00 53 1008.2
20260504014546 69 58 0.0 0.0 0.00 0.00 0.00 53 1007.8
20260504014044 69 58 0.0 0.9 0.00 0.00 0.00 57 1008.1
20260504013541 69 58 0.0 0.0 0.00 0.00 0.00 57 1008.3
20260504013038 70 58 0.0 0.9 0.00 0.00 0.00 56 1008.1
20260504012536 71 56 0.0 0.0 0.00 0.00 0.00 50 1008.0
20260504012033 72 55 0.0 0.9 0.00 0.00 0.00 49 1007.8
20260504011530 72 55 0.9 0.9 0.00 0.00 0.00 49 1008.2
20260504011026 73 55 0.0 0.0 0.00 0.00 0.00 48 1008.0
20260504010522 73 55 0.0 0.0 0.00 0.00 0.00 48 1007.9
20260504010018 74 55 0.0 0.0 0.00 0.00 0.00 46 1007.8
20260504005515 74 55 0.0 0.0 0.00 0.00 0.00 44 1007.5
20260504005012 75 55 0.0 0.0 0.00 0.00 0.00 43 1007.9
20260504004510 75 55 0.0 0.0 0.00 0.00 0.00 43 1007.9
20260504004007 77 55 0.0 0.0 0.00 0.00 0.00 42 1007.8
20260504003503 77 47 0.0 0.0 0.00 0.00 0.00 40 1007.9
20260504003000 78 40 0.0 0.0 0.00 0.00 0.00 39 1007.9
20260504002457 78 37 0.9 0.9 0.00 0.00 0.00 38 1008.0
20260504001954 78 303 2.6 2.6 0.00 0.00 0.00 37 1008.0
20260504001451 79 43 0.9 0.9 0.00 0.00 0.00 37 1008.0
20260504000948 79 18 1.7 4.3 0.00 0.00 0.00 36 1008.0
20260504000445 79 340 2.6 2.6 0.00 0.00 0.00 38 1008.0
20260503235942 79 11 1.7 2.6 0.00 0.00 0.00 36 1007.9
20260503235440 80 42 0.0 0.9 0.00 0.00 0.00 39 1008.0
20260503234937 80 3 1.7 2.6 0.00 0.00 0.00 35 1008.1
20260503234435 81 47 0.9 0.9 0.00 0.00 0.00 37 1008.2
20260503233933 81 16 0.9 2.6 0.00 0.00 0.00 34 1007.9
20260503233429 81 38 0.9 2.6 0.00 0.00 0.00 36 1008.1
20260503232925 81 36 0.0 2.6 0.00 0.00 0.00 35 1008.1
20260503232422 81 349 0.9 1.7 0.00 0.00 0.00 33 1008.2
20260503231920 82 335 2.6 2.6 0.00 0.00 0.00 33 1008.0
20260503231417 82 286 2.6 5.2 0.00 0.00 0.00 33 1008.1
20260503230914 82 319 2.6 5.2 0.00 0.00 0.00 32 1008.0
20260503230410 82 87 0.9 0.9 0.00 0.00 0.00 33 1008.1
20260503225908 83 306 2.6 5.2 0.00 0.00 0.00 31 1007.9
20260503225404 83 30 0.9 4.3 0.00 0.00 0.00 31 1008.1
20260503224900 83 352 3.5 6.1 0.00 0.00 0.00 32 1008.1
20260503224357 83 118 0.9 1.7 0.00 0.00 0.00 34 1008.0
20260503223855 82 282 2.6 4.3 0.00 0.00 0.00 33 1008.1
20260503223353 82 125 1.7 6.1 0.00 0.00 0.00 31 1008.3
20260503222848 82 188 3.5 5.2 0.00 0.00 0.00 33 1008.3
20260503222347 82 129 0.9 1.7 0.00 0.00 0.00 33 1008.5
20260503221844 82 183 2.6 4.3 0.00 0.00 0.00 32 1008.3
20260503221343 82 211 1.7 5.2 0.00 0.00 0.00 32 1008.4
20260503220838 83 292 2.6 6.1 0.00 0.00 0.00 32 1008.4
20260503220336 82 343 1.7 2.6 0.00 0.00 0.00 32 1008.5
20260503215832 82 303 4.3 6.1 0.00 0.00 0.00 31 1008.6
20260503215330 82 165 2.6 11.3 0.00 0.00 0.00 32 1008.7
20260503214827 82 137 0.9 6.1 0.00 0.00 0.00 31 1008.7
20260503214324 82 143 0.0 4.3 0.00 0.00 0.00 33 1008.8
20260503213822 82 58 0.0 2.6 0.00 0.00 0.00 32 1008.6
20260503213319 82 306 5.2 8.7 0.00 0.00 0.00 31 1008.9
20260503212816 82 67 1.7 4.3 0.00 0.00 0.00 34 1008.9
20260503212314 82 173 2.6 4.3 0.00 0.00 0.00 36 1009.1
20260503211811 81 18 0.9 7.0 0.00 0.00 0.00 34 1008.9
20260503211308 81 154 0.9 5.2 0.00 0.00 0.00 36 1009.0
20260503210807 81 311 0.0 2.6 0.00 0.00 0.00 36 1009.3
20260503210306 81 218 4.3 6.1 0.00 0.00 0.00 37 1009.3
20260503205800 81 355 1.7 8.7 0.00 0.00 0.00 37 1009.3
20260503205257 81 148 2.6 4.3 0.00 0.00 0.00 37 1009.1
20260503204753 80 211 3.5 8.7 0.00 0.00 0.00 37 1009.7
20260503204251 80 144 2.6 6.1 0.00 0.00 0.00 38 1009.4
20260503203749 80 167 3.5 5.2 0.00 0.00 0.00 38 1009.6
20260503203246 80 195 3.5 9.6 0.00 0.00 0.00 37 1009.7
20260503202743 79 192 2.6 7.8 0.00 0.00 0.00 38 1009.6
20260503202241 80 120 3.5 8.7 0.00 0.00 0.00 37 1010.1
20260503201738 80 138 1.7 6.1 0.00 0.00 0.00 38 1010.2